Time,TemperatureF,DewpointF,PressureIn,WindDirection,WindDirectionDegrees,WindSpeedMPH,WindSpeedGustMPH,Humidity,HourlyPrecipIn,Conditions,Clouds,dailyrainin,SoftwareType,DateUTC
2013-07-13 00:03:00,76.8,61.9,29.91,WNW,287,0.0,5.0,60,0.00,,,0.00,meteohub,2013-07-13 05:03:00,
2013-07-13 00:08:00,76.8,61.3,29.91,NNE,30,0.0,2.0,59,0.00,,,0.00,meteohub,2013-07-13 05:08:00,
2013-07-13 00:14:00,76.6,61.2,29.90,North,10,0.0,10.0,59,0.00,,,0.00,meteohub,2013-07-13 05:14:00,
2013-07-13 00:19:00,76.6,61.2,29.90,North,351,1.0,10.0,59,0.00,,,0.00,meteohub,2013-07-13 05:19:00,
2013-07-13 00:24:00,76.6,61.2,29.90,WSW,253,0.0,10.0,59,0.00,,,0.00,meteohub,2013-07-13 05:24:00,
2013-07-13 00:29:00,76.6,61.2,29.90,North,355,0.0,11.0,59,0.00,,,0.00,meteohub,2013-07-13 05:29:00,
2013-07-13 00:34:00,76.6,61.2,29.90,WSW,256,0.0,11.0,59,0.00,,,0.00,meteohub,2013-07-13 05:34:00,
2013-07-13 00:39:00,76.5,61.0,29.90,WSW,250,0.0,11.0,59,0.00,,,0.00,meteohub,2013-07-13 05:39:00,
2013-07-13 00:44:00,76.5,61.0,29.90,NE,44,1.0,5.0,59,0.00,,,0.00,meteohub,2013-07-13 05:44:00,
2013-07-13 00:49:00,76.5,61.0,29.89,NNE,14,0.0,5.0,59,0.00,,,0.00,meteohub,2013-07-13 05:49:00,
2013-07-13 00:54:00,76.5,61.0,29.90,NNE,13,0.0,5.0,59,0.00,,,0.00,meteohub,2013-07-13 05:54:00,
2013-07-13 00:59:00,76.5,61.0,29.89,WNW,302,5.0,5.0,59,0.00,,,0.00,meteohub,2013-07-13 05:59:00,
2013-07-13 01:04:00,76.3,60.4,29.89,WSW,249,0.0,4.0,58,0.00,,,0.00,meteohub,2013-07-13 06:04:00,
2013-07-13 01:09:00,76.3,60.4,29.88,West,263,0.0,7.0,58,0.00,,,0.00,meteohub,2013-07-13 06:09:00,
2013-07-13 01:14:00,76.3,60.4,29.88,SW,236,0.0,7.0,58,0.00,,,0.00,meteohub,2013-07-13 06:14:00,
2013-07-13 01:19:00,76.1,60.3,29.87,WSW,253,0.0,6.0,58,0.00,,,0.00,meteohub,2013-07-13 06:19:00,
2013-07-13 01:25:00,76.1,60.3,29.87,West,265,0.0,9.0,58,0.00,,,0.00,meteohub,2013-07-13 06:25:00,
2013-07-13 01:30:00,76.1,60.3,29.87,SW,232,0.0,9.0,58,0.00,,,0.00,meteohub,2013-07-13 06:30:00,
2013-07-13 01:35:00,76.1,60.3,29.88,NNE,28,0.0,9.0,58,0.00,,,0.00,meteohub,2013-07-13 06:35:00,
2013-07-13 01:40:00,75.9,60.1,29.89,WSW,252,0.0,3.0,58,0.00,,,0.00,meteohub,2013-07-13 06:40:00,
2013-07-13 01:45:00,75.9,60.1,29.89,WSW,257,0.0,3.0,58,0.00,,,0.00,meteohub,2013-07-13 06:45:00,
2013-07-13 01:50:00,75.9,60.1,29.90,WSW,254,2.0,3.0,58,0.00,,,0.00,meteohub,2013-07-13 06:50:00,
2013-07-13 01:55:00,75.9,60.6,29.91,North,11,0.0,8.0,59,0.00,,,0.00,meteohub,2013-07-13 06:55:00,
2013-07-13 02:00:00,75.9,60.6,29.91,NNE,22,0.0,8.0,59,0.00,,,0.00,meteohub,2013-07-13 07:00:00,
2013-07-13 02:05:00,75.9,60.6,29.92,North,350,0.0,8.0,59,0.00,,,0.00,meteohub,2013-07-13 07:05:00,
2013-07-13 02:10:00,75.9,60.6,29.93,North,355,0.0,1.0,59,0.00,,,0.00,meteohub,2013-07-13 07:10:00,
2013-07-13 02:15:00,75.7,60.8,29.92,North,0,0.0,1.0,60,0.00,,,0.00,meteohub,2013-07-13 07:15:00,
2013-07-13 02:20:00,75.7,60.8,29.92,North,0,0.0,1.0,60,0.00,,,0.00,meteohub,2013-07-13 07:20:00,
2013-07-13 02:25:00,75.7,60.8,29.92,North,5,0.0,1.0,60,0.00,,,0.00,meteohub,2013-07-13 07:25:00,
2013-07-13 02:30:00,75.6,60.6,29.93,NE,51,0.0,1.0,60,0.00,,,0.00,meteohub,2013-07-13 07:30:00,
2013-07-13 02:35:00,75.6,60.6,29.91,NE,51,0.0,2.0,60,0.00,,,0.00,meteohub,2013-07-13 07:35:00,
2013-07-13 02:41:00,75.6,61.2,29.92,NE,51,0.0,2.0,61,0.00,,,0.00,meteohub,2013-07-13 07:41:00,
2013-07-13 02:46:00,75.6,61.2,29.93,NE,51,0.0,1.0,61,0.00,,,0.00,meteohub,2013-07-13 07:46:00,
2013-07-13 02:51:00,75.4,61.0,29.93,NE,51,0.0,1.0,61,0.00,,,0.00,meteohub,2013-07-13 07:51:00,
2013-07-13 02:56:00,75.4,61.0,29.95,NE,51,0.0,1.0,61,0.00,,,0.00,meteohub,2013-07-13 07:56:00,
2013-07-13 03:01:00,75.4,61.5,29.92,NE,51,0.0,1.0,62,0.00,,,0.00,meteohub,2013-07-13 08:01:00,
2013-07-13 03:06:00,75.2,61.3,29.91,NE,51,0.0,1.0,62,0.00,,,0.00,meteohub,2013-07-13 08:06:00,
2013-07-13 03:11:00,75.0,61.5,29.88,NE,51,0.0,1.0,63,0.00,,,0.00,meteohub,2013-07-13 08:11:00,
2013-07-13 03:16:00,74.8,61.9,29.88,NE,51,0.0,1.0,64,0.00,,,0.00,meteohub,2013-07-13 08:16:00,
2013-07-13 03:21:00,74.8,61.9,29.93,NNE,30,0.0,1.0,64,0.00,,,0.00,meteohub,2013-07-13 08:21:00,
2013-07-13 03:26:00,74.8,62.2,29.92,NNE,32,0.0,1.0,65,0.00,,,0.00,meteohub,2013-07-13 08:26:00,
2013-07-13 03:31:00,74.7,62.6,29.91,NNE,32,0.0,1.0,66,0.00,,,0.00,meteohub,2013-07-13 08:31:00,
2013-07-13 03:36:00,74.7,62.6,29.91,NNE,32,0.0,1.0,66,0.00,,,0.00,meteohub,2013-07-13 08:36:00,
2013-07-13 03:41:00,74.5,62.8,29.90,NNE,32,0.0,1.0,67,0.00,,,0.00,meteohub,2013-07-13 08:41:00,
2013-07-13 03:46:00,73.9,62.8,29.88,NNE,32,0.0,1.0,68,0.00,,,0.00,meteohub,2013-07-13 08:46:00,
2013-07-13 03:52:00,73.8,63.3,29.93,NNE,32,0.0,1.0,70,0.00,,,0.00,meteohub,2013-07-13 08:52:00,
2013-07-13 03:57:00,73.6,64.0,29.97,NNE,32,0.0,1.0,72,0.01,,,0.01,meteohub,2013-07-13 08:57:00,
2013-07-13 04:02:00,73.2,64.0,29.96,NNE,32,0.0,1.0,73,0.02,,,0.02,meteohub,2013-07-13 09:02:00,
2013-07-13 04:07:00,72.9,64.0,29.93,NNE,32,0.0,0.0,74,0.02,,,0.02,meteohub,2013-07-13 09:07:00,
2013-07-13 04:12:00,72.5,64.6,29.95,NNE,32,0.0,0.0,76,0.04,,,0.04,meteohub,2013-07-13 09:12:00,
2013-07-13 04:17:00,72.1,64.6,29.96,NNE,32,0.0,1.0,77,0.06,,,0.06,meteohub,2013-07-13 09:17:00,
2013-07-13 04:22:00,71.8,64.6,29.96,NNE,32,0.0,1.0,78,0.13,,,0.13,meteohub,2013-07-13 09:22:00,
2013-07-13 04:27:00,71.4,64.2,29.98,NNE,32,0.0,1.0,78,0.24,,,0.24,meteohub,2013-07-13 09:27:00,
2013-07-13 04:32:00,71.2,64.4,29.96,NNE,32,0.0,0.0,79,0.35,,,0.35,meteohub,2013-07-13 09:32:00,
2013-07-13 04:37:00,70.9,64.0,29.96,NNE,32,0.0,0.0,79,0.45,,,0.45,meteohub,2013-07-13 09:37:00,
2013-07-13 04:42:00,70.5,64.0,29.96,NNE,28,0.0,0.0,80,0.54,,,0.54,meteohub,2013-07-13 09:42:00,
2013-07-13 04:47:00,70.2,64.0,29.96,NNE,26,0.0,2.0,81,0.68,,,0.68,meteohub,2013-07-13 09:47:00,
2013-07-13 04:52:00,69.6,63.9,29.95,NNE,26,0.0,2.0,82,0.68,,,0.68,meteohub,2013-07-13 09:52:00,
2013-07-13 04:57:00,69.3,63.5,29.93,NNE,26,0.0,2.0,82,1.04,,,1.05,meteohub,2013-07-13 09:57:00,
2013-07-13 05:02:00,68.9,63.5,29.94,NNE,26,0.0,1.0,83,1.13,,,1.11,meteohub,2013-07-13 10:02:00,
2013-07-13 05:07:00,68.5,63.1,29.96,NNE,26,0.0,1.0,83,1.15,,,1.18,meteohub,2013-07-13 10:07:00,
2013-07-13 05:12:00,68.4,63.3,29.97,NNE,26,0.0,0.0,84,1.28,,,1.33,meteohub,2013-07-13 10:12:00,
2013-07-13 05:17:00,68.2,63.1,30.01,NNE,26,0.0,0.0,84,1.26,,,1.35,meteohub,2013-07-13 10:17:00,
2013-07-13 05:22:00,68.0,63.3,29.97,NNE,25,0.0,1.0,85,1.47,,,1.64,meteohub,2013-07-13 10:22:00,
2013-07-13 05:27:00,67.8,63.1,29.96,NNE,15,1.0,1.0,85,1.69,,,1.97,meteohub,2013-07-13 10:27:00,
2013-07-13 05:32:00,67.6,63.3,29.96,NE,46,0.0,2.0,86,1.79,,,2.16,meteohub,2013-07-13 10:32:00,
2013-07-13 05:38:00,67.6,63.3,29.96,NNW,344,1.0,2.0,86,2.13,,,2.61,meteohub,2013-07-13 10:38:00,
2013-07-13 05:43:00,67.6,63.7,29.97,NNW,344,0.0,2.0,87,2.11,,,2.66,meteohub,2013-07-13 10:43:00,
2013-07-13 05:48:00,67.6,63.7,29.96,NNW,342,0.0,2.0,87,2.01,,,2.72,meteohub,2013-07-13 10:48:00,
2013-07-13 05:53:00,67.5,63.5,29.98,NW,309,0.0,2.0,87,2.04,,,3.04,meteohub,2013-07-13 10:53:00,
2013-07-13 05:58:00,67.3,63.7,29.98,NE,42,0.0,2.0,88,2.18,,,3.24,meteohub,2013-07-13 10:58:00,
2013-07-13 06:03:00,66.9,63.3,30.00,NE,43,0.0,5.0,88,2.26,,,3.40,meteohub,2013-07-13 11:03:00,
2013-07-13 06:08:00,66.7,63.1,29.99,NE,44,0.0,5.0,88,2.44,,,3.66,meteohub,2013-07-13 11:08:00,
2013-07-13 06:13:00,66.7,63.1,30.00,NE,43,1.0,2.0,88,2.42,,,3.76,meteohub,2013-07-13 11:13:00,
2013-07-13 06:18:00,66.6,63.0,29.99,NNE,33,0.0,1.0,88,2.65,,,4.10,meteohub,2013-07-13 11:18:00,
2013-07-13 06:23:00,66.4,63.0,30.01,NNW,344,0.0,1.0,89,2.60,,,4.32,meteohub,2013-07-13 11:23:00,
2013-07-13 06:28:00,66.4,63.0,29.99,WNW,288,0.0,2.0,89,2.38,,,4.39,meteohub,2013-07-13 11:28:00,
2013-07-13 06:33:00,66.4,63.0,29.98,WNW,295,0.0,5.0,89,2.19,,,4.59,meteohub,2013-07-13 11:33:00,
2013-07-13 06:38:00,66.4,63.0,29.98,WNW,296,0.0,5.0,89,2.13,,,4.77,meteohub,2013-07-13 11:38:00,
2013-07-13 06:44:00,66.2,63.1,29.98,NW,317,0.0,2.0,90,2.16,,,4.86,meteohub,2013-07-13 11:44:00,
2013-07-13 06:49:00,66.0,63.0,29.98,NW,326,0.0,2.0,90,2.23,,,5.04,meteohub,2013-07-13 11:49:00,
2013-07-13 06:52:00,66.0,63.0,29.99,NNE,13,0.0,2.0,90,1.99,,,5.08,meteohub,2013-07-13 11:52:00,
2013-07-13 06:57:00,65.8,62.8,29.99,NNE,13,0.0,2.0,90,1.74,,,5.09,meteohub,2013-07-13 11:57:00,
2013-07-13 07:02:00,65.8,62.8,29.99,North,11,0.0,2.0,90,1.66,,,5.13,meteohub,2013-07-13 12:02:00,
2013-07-13 07:07:00,65.7,62.6,29.98,NNW,333,0.0,2.0,90,1.46,,,5.16,meteohub,2013-07-13 12:07:00,
2013-07-13 07:12:00,65.7,62.6,29.97,NNW,333,0.0,2.0,90,1.23,,,5.17,meteohub,2013-07-13 12:12:00,
2013-07-13 07:17:00,65.7,62.6,29.98,NNW,333,0.0,2.0,90,0.99,,,5.17,meteohub,2013-07-13 12:17:00,
2013-07-13 07:22:00,65.8,63.1,29.98,NNW,333,0.0,1.0,91,0.83,,,5.17,meteohub,2013-07-13 12:22:00,
2013-07-13 07:27:00,66.0,63.3,29.98,NNW,348,0.0,1.0,91,0.69,,,5.17,meteohub,2013-07-13 12:27:00,
2013-07-13 07:32:00,66.4,63.7,29.97,NNW,348,0.0,1.0,91,0.53,,,5.18,meteohub,2013-07-13 12:32:00,
2013-07-13 07:37:00,66.7,64.0,29.96,NNW,348,0.0,1.0,91,0.39,,,5.18,meteohub,2013-07-13 12:37:00,
2013-07-13 07:43:00,66.9,64.2,29.96,NW,315,0.0,1.0,91,0.22,,,5.18,meteohub,2013-07-13 12:43:00,
2013-07-13 07:48:00,67.5,65.1,29.95,WNW,290,0.0,4.0,92,0.13,,,5.19,meteohub,2013-07-13 12:48:00,
2013-07-13 07:53:00,68.4,66.0,29.95,West,276,0.0,4.0,92,0.11,,,5.19,meteohub,2013-07-13 12:53:00,
2013-07-13 07:58:00,68.7,66.4,29.94,NW,320,10.0,13.0,92,0.07,,,5.19,meteohub,2013-07-13 12:58:00,
2013-07-13 08:03:00,69.3,66.9,29.94,NW,314,0.0,13.0,92,0.05,,,5.19,meteohub,2013-07-13 13:03:00,
2013-07-13 08:08:00,69.4,67.1,29.94,South,191,3.0,11.0,92,0.03,,,5.19,meteohub,2013-07-13 13:08:00,
2013-07-13 08:13:00,69.6,67.3,29.94,WNW,285,0.0,15.0,92,0.02,,,5.19,meteohub,2013-07-13 13:13:00,
2013-07-13 08:18:00,69.8,67.3,29.94,WNW,283,3.0,15.0,92,0.02,,,5.19,meteohub,2013-07-13 13:18:00,
2013-07-13 08:23:00,70.0,67.5,29.94,NW,325,10.0,15.0,92,0.02,,,5.19,meteohub,2013-07-13 13:23:00,
2013-07-13 08:28:00,70.0,67.5,29.94,West,276,4.0,14.0,92,0.03,,,5.20,meteohub,2013-07-13 13:28:00,
2013-07-13 08:33:00,69.8,67.3,29.93,WNW,287,0.0,14.0,92,0.02,,,5.20,meteohub,2013-07-13 13:33:00,
2013-07-13 08:38:00,69.8,67.3,29.93,West,271,0.0,14.0,92,0.02,,,5.20,meteohub,2013-07-13 13:38:00,
2013-07-13 08:43:00,69.8,67.3,29.93,WNW,296,7.0,15.0,92,0.02,,,5.20,meteohub,2013-07-13 13:43:00,
2013-07-13 08:48:00,70.0,67.5,29.93,WSW,256,2.0,15.0,92,0.01,,,5.20,meteohub,2013-07-13 13:48:00,
2013-07-13 08:54:00,70.0,67.8,29.93,West,273,0.0,17.0,93,0.01,,,5.20,meteohub,2013-07-13 13:54:00,
2013-07-13 08:59:00,70.2,68.0,29.92,West,259,5.0,17.0,93,0.01,,,5.20,meteohub,2013-07-13 13:59:00,
2013-07-13 09:04:00,70.2,68.0,29.92,West,279,0.0,16.0,93,0.01,,,5.20,meteohub,2013-07-13 14:04:00,
2013-07-13 09:09:00,70.3,68.2,29.91,WNW,286,10.0,16.0,93,0.01,,,5.20,meteohub,2013-07-13 14:09:00,
2013-07-13 09:14:00,70.2,67.6,29.92,WNW,286,3.0,16.0,92,0.01,,,5.20,meteohub,2013-07-13 14:14:00,
2013-07-13 09:19:00,70.0,67.5,29.92,North,9,0.0,16.0,92,0.01,,,5.20,meteohub,2013-07-13 14:19:00,
2013-07-13 09:24:00,70.2,68.0,29.92,NNW,341,5.0,17.0,93,0.01,,,5.20,meteohub,2013-07-13 14:24:00,
2013-07-13 09:29:00,70.2,68.0,29.92,WSW,246,0.0,19.0,93,0.00,,,5.20,meteohub,2013-07-13 14:29:00,
2013-07-13 09:34:00,70.3,68.2,29.92,WSW,255,1.0,19.0,93,0.00,,,5.20,meteohub,2013-07-13 14:34:00,
2013-07-13 09:39:00,70.3,68.2,29.92,West,259,0.0,19.0,93,0.00,,,5.20,meteohub,2013-07-13 14:39:00,
2013-07-13 09:44:00,70.3,67.8,29.92,WNW,296,0.0,12.0,92,0.00,,,5.20,meteohub,2013-07-13 14:44:00,
2013-07-13 09:50:00,70.3,67.8,29.92,East,93,0.0,11.0,92,0.00,,,5.20,meteohub,2013-07-13 14:50:00,
2013-07-13 09:55:00,70.3,67.8,29.92,West,260,0.0,11.0,92,0.00,,,5.20,meteohub,2013-07-13 14:55:00,
2013-07-13 10:00:00,70.3,67.8,29.92,West,281,2.0,11.0,92,0.00,,,5.20,meteohub,2013-07-13 15:00:00,
2013-07-13 10:05:00,70.3,67.8,29.92,West,270,0.0,11.0,92,0.00,,,5.20,meteohub,2013-07-13 15:05:00,
2013-07-13 10:10:00,70.3,67.8,29.91,West,261,1.0,11.0,92,0.00,,,5.20,meteohub,2013-07-13 15:10:00,
2013-07-13 10:15:00,70.5,68.0,29.91,WSW,239,1.0,14.0,92,0.00,,,5.20,meteohub,2013-07-13 15:15:00,
2013-07-13 10:20:00,70.7,68.2,29.91,NW,304,0.0,14.0,92,0.00,,,5.20,meteohub,2013-07-13 15:20:00,
2013-07-13 10:25:00,70.9,68.4,29.91,WNW,295,1.0,14.0,92,0.00,,,5.20,meteohub,2013-07-13 15:25:00,
2013-07-13 10:30:00,70.9,68.4,29.91,WSW,240,0.0,10.0,92,0.00,,,5.20,meteohub,2013-07-13 15:30:00,
2013-07-13 10:35:00,71.1,68.4,29.91,WSW,248,0.0,11.0,91,0.00,,,5.20,meteohub,2013-07-13 15:35:00,
2013-07-13 10:40:00,71.1,68.4,29.91,WSW,242,0.0,11.0,91,0.00,,,5.20,meteohub,2013-07-13 15:40:00,
2013-07-13 10:45:00,71.1,68.4,29.91,West,275,0.0,10.0,91,0.00,,,5.20,meteohub,2013-07-13 15:45:00,
2013-07-13 10:50:00,71.2,68.5,29.91,NW,322,0.0,10.0,91,0.00,,,5.20,meteohub,2013-07-13 15:50:00,
2013-07-13 10:56:00,71.4,68.4,29.91,WSW,238,0.0,7.0,90,0.00,,,5.20,meteohub,2013-07-13 15:56:00,
2013-07-13 11:01:00,71.2,68.2,29.91,WNW,303,0.0,11.0,90,0.00,,,5.20,meteohub,2013-07-13 16:01:00,
2013-07-13 11:06:00,71.4,68.4,29.91,WSW,240,0.0,11.0,90,0.00,,,5.20,meteohub,2013-07-13 16:06:00,
2013-07-13 11:11:00,71.8,68.4,29.91,NW,309,2.0,11.0,89,0.00,,,5.20,meteohub,2013-07-13 16:11:00,
2013-07-13 11:16:00,72.1,68.7,29.92,WNW,285,0.0,9.0,89,0.00,,,5.20,meteohub,2013-07-13 16:16:00,
2013-07-13 11:21:00,72.5,69.1,29.92,West,277,0.0,9.0,89,0.00,,,5.20,meteohub,2013-07-13 16:21:00,
2013-07-13 11:26:00,72.9,69.4,29.93,West,261,0.0,9.0,89,0.00,,,5.20,meteohub,2013-07-13 16:26:00,
2013-07-13 11:31:00,73.2,69.4,29.93,West,268,0.0,9.0,88,0.00,,,5.20,meteohub,2013-07-13 16:31:00,
2013-07-13 11:36:00,73.6,69.8,29.93,WSW,251,0.0,9.0,88,0.00,,,5.20,meteohub,2013-07-13 16:36:00,
2013-07-13 11:41:00,73.8,69.6,29.93,WSW,246,5.0,5.0,87,0.00,,,5.20,meteohub,2013-07-13 16:41:00,
2013-07-13 11:46:00,74.1,70.0,29.93,WNW,293,4.0,5.0,87,0.00,,,5.20,meteohub,2013-07-13 16:46:00,
2013-07-13 11:51:00,74.5,70.0,29.94,West,260,0.0,10.0,86,0.00,,,5.20,meteohub,2013-07-13 16:51:00,
2013-07-13 11:57:00,74.8,70.0,29.93,WSW,253,0.0,11.0,85,0.00,,,5.20,meteohub,2013-07-13 16:57:00,
2013-07-13 12:02:00,75.2,70.3,29.94,WSW,254,0.0,11.0,85,0.00,,,5.20,meteohub,2013-07-13 17:02:00,
2013-07-13 12:07:00,75.4,70.2,29.94,West,261,0.0,11.0,84,0.00,,,5.20,meteohub,2013-07-13 17:07:00,
2013-07-13 12:12:00,75.7,70.2,29.94,West,280,0.0,11.0,83,0.00,,,5.20,meteohub,2013-07-13 17:12:00,
2013-07-13 12:17:00,75.9,70.0,29.95,West,264,1.0,9.0,82,0.00,,,5.20,meteohub,2013-07-13 17:17:00,
2013-07-13 12:22:00,76.3,70.3,29.95,WSW,247,0.0,6.0,82,0.00,,,5.20,meteohub,2013-07-13 17:22:00,
2013-07-13 12:27:00,76.5,70.5,29.96,West,270,0.0,5.0,82,0.00,,,5.20,meteohub,2013-07-13 17:27:00,
2013-07-13 12:32:00,76.6,70.3,29.96,WSW,253,0.0,4.0,81,0.00,,,5.20,meteohub,2013-07-13 17:32:00,
2013-07-13 12:37:00,76.6,70.0,29.96,WSW,251,0.0,4.0,80,0.00,,,5.20,meteohub,2013-07-13 17:37:00,
2013-07-13 12:42:00,76.6,69.6,29.96,WSW,258,0.0,4.0,79,0.00,,,5.20,meteohub,2013-07-13 17:42:00,
2013-07-13 12:47:00,76.8,69.8,29.96,WSW,250,0.0,9.0,79,0.00,,,5.20,meteohub,2013-07-13 17:47:00,
2013-07-13 12:52:00,76.8,69.8,29.97,WSW,252,0.0,9.0,79,0.00,,,5.20,meteohub,2013-07-13 17:52:00,
2013-07-13 12:57:00,76.8,69.8,29.97,WSW,252,0.0,2.0,79,0.00,,,5.20,meteohub,2013-07-13 17:57:00,
2013-07-13 13:02:00,76.8,69.8,29.97,WSW,252,0.0,0.0,79,0.00,,,5.20,meteohub,2013-07-13 18:02:00,
2013-07-13 13:07:00,76.6,69.6,29.97,WSW,250,0.0,0.0,79,0.00,,,5.20,meteohub,2013-07-13 18:07:00,
2013-07-13 13:12:00,76.6,69.6,29.98,WSW,249,0.0,1.0,79,0.00,,,5.20,meteohub,2013-07-13 18:12:00,
2013-07-13 13:17:00,76.6,69.6,29.98,WSW,250,0.0,1.0,79,0.00,,,5.20,meteohub,2013-07-13 18:17:00,
2013-07-13 13:22:00,76.5,69.4,29.98,WSW,246,3.0,4.0,79,0.00,,,5.20,meteohub,2013-07-13 18:22:00,
2013-07-13 13:27:00,76.1,68.4,29.98,WSW,242,0.0,7.0,77,0.00,,,5.20,meteohub,2013-07-13 18:27:00,
2013-07-13 13:32:00,75.9,68.2,29.98,WSW,254,0.0,7.0,77,0.00,,,5.20,meteohub,2013-07-13 18:32:00,
2013-07-13 13:37:00,75.9,68.5,29.98,WSW,252,0.0,7.0,78,0.00,,,5.20,meteohub,2013-07-13 18:37:00,
2013-07-13 13:42:00,75.9,68.5,29.98,WSW,251,0.0,3.0,78,0.00,,,5.20,meteohub,2013-07-13 18:42:00,
2013-07-13 13:47:00,75.9,68.5,29.97,WSW,250,0.0,2.0,78,0.00,,,5.20,meteohub,2013-07-13 18:47:00,
2013-07-13 13:52:00,76.1,68.7,29.97,WSW,250,0.0,2.0,78,0.00,,,5.20,meteohub,2013-07-13 18:52:00,
2013-07-13 13:57:00,76.3,69.3,29.97,WSW,250,0.0,2.0,79,0.00,,,5.20,meteohub,2013-07-13 18:57:00,
2013-07-13 14:02:00,76.5,69.4,29.97,SW,234,0.0,1.0,79,0.00,,,5.20,meteohub,2013-07-13 19:02:00,
2013-07-13 14:07:00,76.6,69.6,29.96,SW,234,0.0,1.0,79,0.00,,,5.20,meteohub,2013-07-13 19:07:00,
2013-07-13 14:12:00,77.2,70.2,29.96,SW,225,0.0,1.0,79,0.00,,,5.20,meteohub,2013-07-13 19:12:00,
2013-07-13 14:17:00,77.4,70.0,29.96,North,9,1.0,2.0,78,0.00,,,5.20,meteohub,2013-07-13 19:17:00,
2013-07-13 14:22:00,77.5,70.2,29.96,NE,35,0.0,2.0,78,0.00,,,5.20,meteohub,2013-07-13 19:22:00,
2013-07-13 14:27:00,77.5,70.2,29.96,SSW,194,0.0,4.0,78,0.00,,,5.20,meteohub,2013-07-13 19:27:00,
2013-07-13 14:31:00,77.4,69.6,29.96,SSE,156,0.0,4.0,77,0.00,,,5.20,meteohub,2013-07-13 19:31:00,
2013-07-13 14:36:00,77.2,69.4,29.96,SSE,150,0.0,4.0,77,0.00,,,5.20,meteohub,2013-07-13 19:36:00,
2013-07-13 14:41:00,77.2,69.4,29.96,SSE,152,0.0,2.0,77,0.00,,,5.20,meteohub,2013-07-13 19:41:00,
2013-07-13 14:46:00,76.8,69.1,29.96,SSE,163,0.0,2.0,77,0.00,,,5.20,meteohub,2013-07-13 19:46:00,
2013-07-13 14:51:00,76.8,69.1,29.96,SSE,163,0.0,2.0,77,0.00,,,5.20,meteohub,2013-07-13 19:51:00,
2013-07-13 14:56:00,76.6,68.5,29.96,South,179,0.0,2.0,76,0.00,,,5.20,meteohub,2013-07-13 19:56:00,
2013-07-13 15:01:00,76.5,68.7,29.96,South,178,0.0,2.0,77,0.00,,,5.20,meteohub,2013-07-13 20:01:00,
2013-07-13 15:06:00,76.3,68.5,29.97,South,180,0.0,2.0,77,0.00,,,5.20,meteohub,2013-07-13 20:06:00,
2013-07-13 15:11:00,76.1,68.4,29.96,SW,223,0.0,2.0,77,0.00,,,5.20,meteohub,2013-07-13 20:11:00,
2013-07-13 15:16:00,75.7,67.6,29.96,SW,216,0.0,2.0,76,0.00,,,5.20,meteohub,2013-07-13 20:16:00,
2013-07-13 15:21:00,75.6,67.8,29.96,SW,216,0.0,3.0,77,0.00,,,5.20,meteohub,2013-07-13 20:21:00,
2013-07-13 15:27:00,75.4,67.6,29.97,South,187,0.0,3.0,77,0.00,,,5.20,meteohub,2013-07-13 20:27:00,
2013-07-13 15:32:00,75.0,66.9,29.97,South,186,0.0,2.0,76,0.00,,,5.20,meteohub,2013-07-13 20:32:00,
2013-07-13 15:37:00,75.0,66.9,29.98,WSW,248,1.0,2.0,76,0.00,,,5.20,meteohub,2013-07-13 20:37:00,
2013-07-13 15:42:00,74.8,66.7,29.98,SW,236,0.0,3.0,76,0.00,,,5.20,meteohub,2013-07-13 20:42:00,
2013-07-13 15:47:00,74.7,66.6,29.98,WSW,244,0.0,3.0,76,0.00,,,5.20,meteohub,2013-07-13 20:47:00,
2013-07-13 15:52:00,74.7,66.6,29.98,South,188,0.0,3.0,76,0.00,,,5.20,meteohub,2013-07-13 20:52:00,
2013-07-13 15:57:00,74.7,66.6,29.98,WSW,245,0.0,3.0,76,0.00,,,5.20,meteohub,2013-07-13 20:57:00,
2013-07-13 16:02:00,74.7,66.6,29.98,WSW,245,0.0,2.0,76,0.00,,,5.20,meteohub,2013-07-13 21:02:00,
2013-07-13 16:07:00,74.5,66.4,29.98,SW,229,0.0,3.0,76,0.00,,,5.20,meteohub,2013-07-13 21:07:00,
2013-07-13 16:12:00,74.5,66.4,29.98,SW,223,0.0,3.0,76,0.00,,,5.20,meteohub,2013-07-13 21:12:00,
2013-07-13 16:17:00,74.5,66.4,29.98,SW,223,0.0,3.0,76,0.00,,,5.20,meteohub,2013-07-13 21:17:00,
2013-07-13 16:22:00,74.5,66.4,29.98,SW,224,0.0,1.0,76,0.00,,,5.20,meteohub,2013-07-13 21:22:00,
2013-07-13 16:27:00,74.3,66.2,29.98,WSW,251,0.0,1.0,76,0.00,,,5.20,meteohub,2013-07-13 21:27:00,
2013-07-13 16:32:00,74.5,66.4,29.98,WSW,247,0.0,5.0,76,0.00,,,5.20,meteohub,2013-07-13 21:32:00,
2013-07-13 16:37:00,74.5,66.4,29.98,WSW,245,0.0,5.0,76,0.00,,,5.20,meteohub,2013-07-13 21:37:00,
2013-07-13 16:42:00,74.5,66.0,29.98,SW,234,0.0,1.0,75,0.00,,,5.20,meteohub,2013-07-13 21:42:00,
2013-07-13 16:47:00,74.7,66.2,29.98,SW,228,0.0,1.0,75,0.00,,,5.20,meteohub,2013-07-13 21:47:00,
2013-07-13 16:52:00,74.7,66.2,29.98,West,268,0.0,1.0,75,0.00,,,5.20,meteohub,2013-07-13 21:52:00,
2013-07-13 16:57:00,74.7,65.8,29.98,WSW,242,0.0,1.0,74,0.00,,,5.20,meteohub,2013-07-13 21:57:00,
2013-07-13 17:02:00,74.7,65.5,29.97,WSW,247,0.0,1.0,73,0.00,,,5.20,meteohub,2013-07-13 22:02:00,
2013-07-13 17:07:00,74.7,65.5,29.97,SSW,211,0.0,1.0,73,0.00,,,5.20,meteohub,2013-07-13 22:07:00,
2013-07-13 17:12:00,74.8,65.7,29.98,SW,224,0.0,1.0,73,0.00,,,5.20,meteohub,2013-07-13 22:12:00,
2013-07-13 17:17:00,74.8,65.7,29.97,SW,224,0.0,1.0,73,0.00,,,5.20,meteohub,2013-07-13 22:17:00,
2013-07-13 17:22:00,74.8,65.1,29.98,WSW,248,0.0,3.0,72,0.00,,,5.20,meteohub,2013-07-13 22:22:00,
2013-07-13 17:27:00,74.8,64.8,29.98,WSW,238,0.0,3.0,71,0.00,,,5.20,meteohub,2013-07-13 22:27:00,
2013-07-13 17:32:00,74.8,64.4,29.98,West,260,0.0,3.0,70,0.00,,,5.20,meteohub,2013-07-13 22:32:00,
2013-07-13 17:37:00,74.8,64.4,29.98,WSW,253,0.0,2.0,70,0.00,,,5.20,meteohub,2013-07-13 22:37:00,
2013-07-13 17:42:00,74.8,64.8,29.98,WSW,253,0.0,1.0,71,0.00,,,5.20,meteohub,2013-07-13 22:42:00,
2013-07-13 17:47:00,75.0,65.3,29.98,WSW,252,0.0,1.0,72,0.00,,,5.20,meteohub,2013-07-13 22:47:00,
2013-07-13 17:52:00,75.2,65.5,29.98,WSW,250,0.0,1.0,72,0.00,,,5.20,meteohub,2013-07-13 22:52:00,
2013-07-13 17:57:00,75.0,64.6,29.99,WSW,246,0.0,1.0,70,0.00,,,5.20,meteohub,2013-07-13 22:57:00,
2013-07-13 18:02:00,74.8,64.4,29.99,WSW,247,0.0,1.0,70,0.00,,,5.20,meteohub,2013-07-13 23:02:00,
2013-07-13 18:07:00,74.8,64.4,29.99,SSW,198,0.0,1.0,70,0.00,,,5.20,meteohub,2013-07-13 23:07:00,
2013-07-13 18:12:00,74.7,64.2,29.99,SSW,198,0.0,1.0,70,0.00,,,5.20,meteohub,2013-07-13 23:12:00,
2013-07-13 18:17:00,74.7,64.2,29.99,SSW,198,0.0,1.0,70,0.00,,,5.20,meteohub,2013-07-13 23:17:00,
2013-07-13 18:22:00,74.7,64.6,29.99,SSW,198,0.0,1.0,71,0.00,,,5.20,meteohub,2013-07-13 23:22:00,
2013-07-13 18:27:00,74.8,64.8,29.99,SSW,198,0.0,1.0,71,0.00,,,5.20,meteohub,2013-07-13 23:27:00,
2013-07-13 18:32:00,74.7,64.6,29.99,SSW,198,0.0,0.0,71,0.00,,,5.20,meteohub,2013-07-13 23:32:00,
2013-07-13 18:37:00,74.7,65.1,29.99,SSW,198,1.0,0.0,72,0.00,,,5.20,meteohub,2013-07-13 23:37:00,
2013-07-13 18:42:00,74.7,64.6,29.99,SSW,198,0.0,1.0,71,0.00,,,5.20,meteohub,2013-07-13 23:42:00,
2013-07-13 18:47:00,74.7,65.1,29.99,SW,236,0.0,1.0,72,0.00,,,5.20,meteohub,2013-07-13 23:47:00,
2013-07-13 18:52:00,74.7,65.1,29.99,SW,231,0.0,4.0,72,0.00,,,5.20,meteohub,2013-07-13 23:52:00,
2013-07-13 18:57:00,74.5,64.9,29.99,SW,231,0.0,4.0,72,0.00,,,5.20,meteohub,2013-07-13 23:57:00,
2013-07-13 19:02:00,74.5,65.3,29.99,West,272,0.0,1.0,73,0.00,,,5.20,meteohub,2013-07-14 00:02:00,
2013-07-13 19:07:00,74.5,65.3,29.99,WSW,246,0.0,1.0,73,0.00,,,0.00,meteohub,2013-07-14 00:07:00,
2013-07-13 19:12:00,74.5,65.3,29.99,WSW,247,0.0,1.0,73,0.00,,,0.00,meteohub,2013-07-14 00:12:00,
2013-07-13 19:17:00,74.5,65.7,29.99,North,5,0.0,2.0,74,0.00,,,0.00,meteohub,2013-07-14 00:17:00,
2013-07-13 19:22:00,74.3,65.5,29.99,North,0,0.0,4.0,74,0.00,,,0.00,meteohub,2013-07-14 00:22:00,
2013-07-13 19:27:00,74.3,65.5,29.99,NNE,28,0.0,4.0,74,0.00,,,0.00,meteohub,2013-07-14 00:27:00,
2013-07-13 19:32:00,74.1,65.3,29.99,NNE,28,0.0,1.0,74,0.00,,,0.00,meteohub,2013-07-14 00:32:00,
2013-07-13 19:37:00,74.1,65.7,29.99,NE,38,0.0,1.0,75,0.00,,,0.00,meteohub,2013-07-14 00:37:00,
2013-07-13 19:42:00,74.1,65.7,29.98,NE,40,0.0,1.0,75,0.00,,,0.00,meteohub,2013-07-14 00:42:00,
2013-07-13 19:47:00,73.9,65.1,29.98,SW,222,0.0,3.0,74,0.00,,,0.00,meteohub,2013-07-14 00:47:00,
2013-07-13 19:52:00,73.8,64.9,29.98,SW,222,0.0,3.0,74,0.00,,,0.00,meteohub,2013-07-14 00:52:00,
2013-07-13 19:57:00,73.6,64.4,29.98,WSW,238,0.0,3.0,73,0.00,,,0.00,meteohub,2013-07-14 00:57:00,
2013-07-13 20:02:00,73.4,63.9,29.99,SSW,213,0.0,2.0,72,0.00,,,0.00,meteohub,2013-07-14 01:02:00,
2013-07-13 20:07:00,73.2,63.3,29.99,SSW,213,0.0,2.0,71,0.00,,,0.00,meteohub,2013-07-14 01:07:00,
2013-07-13 20:12:00,73.0,62.6,29.99,SSW,213,0.0,2.0,70,0.00,,,0.00,meteohub,2013-07-14 01:12:00,
2013-07-13 20:17:00,72.9,61.3,29.99,South,178,0.0,1.0,67,0.00,,,0.00,meteohub,2013-07-14 01:17:00,
2013-07-13 20:22:00,72.7,61.2,29.99,South,178,0.0,1.0,67,0.00,,,0.00,meteohub,2013-07-14 01:22:00,
2013-07-13 20:27:00,72.3,60.3,29.99,South,178,0.0,1.0,66,0.00,,,0.00,meteohub,2013-07-14 01:27:00,
2013-07-13 20:32:00,72.3,59.9,29.99,South,178,0.0,1.0,65,0.00,,,0.00,meteohub,2013-07-14 01:32:00,
2013-07-13 20:37:00,72.1,59.7,29.99,South,178,0.0,1.0,65,0.00,,,0.00,meteohub,2013-07-14 01:37:00,
2013-07-13 20:42:00,72.1,59.4,29.99,South,178,0.0,1.0,64,0.00,,,0.00,meteohub,2013-07-14 01:42:00,
2013-07-13 20:47:00,72.1,59.7,29.99,South,178,0.0,1.0,65,0.00,,,0.00,meteohub,2013-07-14 01:47:00,
2013-07-13 20:52:00,72.0,59.5,29.99,South,178,0.0,1.0,65,0.00,,,0.00,meteohub,2013-07-14 01:52:00,
2013-07-13 20:57:00,72.0,59.5,29.99,South,178,0.0,1.0,65,0.00,,,0.00,meteohub,2013-07-14 01:57:00,
2013-07-13 21:02:00,72.0,59.5,29.99,South,178,0.0,1.0,65,0.00,,,0.00,meteohub,2013-07-14 02:02:00,
2013-07-13 21:07:00,71.8,59.7,29.99,South,178,0.0,1.0,66,0.00,,,0.00,meteohub,2013-07-14 02:07:00,
2013-07-13 21:12:00,71.8,59.7,29.99,South,178,0.0,1.0,66,0.00,,,0.00,meteohub,2013-07-14 02:12:00,
2013-07-13 21:17:00,71.6,60.1,29.99,South,178,0.0,1.0,67,0.00,,,0.00,meteohub,2013-07-14 02:17:00,
2013-07-13 21:22:00,71.4,59.9,29.99,South,173,0.0,1.0,67,0.00,,,0.00,meteohub,2013-07-14 02:22:00,
2013-07-13 21:27:00,71.2,60.1,29.99,SSE,164,0.0,1.0,68,0.00,,,0.00,meteohub,2013-07-14 02:27:00,
2013-07-13 21:32:00,71.2,60.1,29.99,SSE,164,0.0,1.0,68,0.00,,,0.00,meteohub,2013-07-14 02:32:00,
2013-07-13 21:37:00,71.2,60.6,29.99,SSE,165,0.0,1.0,69,0.00,,,0.00,meteohub,2013-07-14 02:37:00,
2013-07-13 21:42:00,71.2,61.0,29.99,SSE,165,0.0,1.0,70,0.00,,,0.00,meteohub,2013-07-14 02:42:00,
2013-07-13 21:47:00,71.1,60.8,29.99,SSE,150,0.0,1.0,70,0.00,,,0.00,meteohub,2013-07-14 02:47:00,
2013-07-13 21:52:00,71.1,60.8,29.99,SSE,150,0.0,1.0,70,0.00,,,0.00,meteohub,2013-07-14 02:52:00,
2013-07-13 21:57:00,71.1,61.2,29.99,NNE,30,0.0,1.0,71,0.00,,,0.00,meteohub,2013-07-14 02:57:00,
2013-07-13 22:02:00,70.9,61.3,30.00,NNE,30,0.0,1.0,72,0.00,,,0.00,meteohub,2013-07-14 03:02:00,
2013-07-13 22:07:00,70.9,61.3,30.00,NNE,32,0.0,1.0,72,0.00,,,0.00,meteohub,2013-07-14 03:07:00,
2013-07-13 22:12:00,70.9,61.9,30.00,NNE,32,0.0,1.0,73,0.00,,,0.00,meteohub,2013-07-14 03:12:00,
2013-07-13 22:17:00,70.7,61.7,30.00,NNE,32,0.0,0.0,73,0.00,,,0.00,meteohub,2013-07-14 03:17:00,
2013-07-13 22:22:00,70.7,61.7,30.01,NNW,347,0.0,1.0,73,0.00,,,0.00,meteohub,2013-07-14 03:22:00,
2013-07-13 22:27:00,70.7,62.1,30.01,North,349,0.0,1.0,74,0.00,,,0.00,meteohub,2013-07-14 03:27:00,
2013-07-13 22:32:00,70.5,61.9,30.01,NNE,15,0.0,0.0,74,0.00,,,0.00,meteohub,2013-07-14 03:32:00,
2013-07-13 22:37:00,70.5,61.9,30.01,NNE,15,0.0,1.0,74,0.00,,,0.00,meteohub,2013-07-14 03:37:00,
2013-07-13 22:42:00,70.5,61.9,30.01,NNE,15,0.0,1.0,74,0.00,,,0.00,meteohub,2013-07-14 03:42:00,
2013-07-13 22:47:00,70.5,61.9,30.01,NNE,14,0.0,1.0,74,0.00,,,0.00,meteohub,2013-07-14 03:47:00,
2013-07-13 22:52:00,70.3,61.7,30.01,NNE,15,0.0,0.0,74,0.00,,,0.00,meteohub,2013-07-14 03:52:00,
2013-07-13 22:57:00,70.3,61.7,30.02,NNE,15,0.0,0.0,74,0.00,,,0.00,meteohub,2013-07-14 03:57:00,
2013-07-13 23:01:00,70.3,61.7,30.02,NNE,15,0.0,1.0,74,0.00,,,0.00,meteohub,2013-07-14 04:01:00,
2013-07-13 23:02:00,70.3,61.7,30.02,NNE,15,0.0,1.0,74,0.00,,,0.00,meteohub,2013-07-14 04:02:00,
2013-07-13 23:04:00,70.3,61.7,30.02,NNE,15,0.0,1.0,74,0.00,,,0.00,meteohub,2013-07-14 04:04:00,
2013-07-13 23:05:00,70.3,61.7,30.02,NNE,15,0.0,1.0,74,0.00,,,0.00,meteohub,2013-07-14 04:05:00,
2013-07-13 23:10:00,70.3,62.1,30.02,NNE,15,0.0,0.0,75,0.00,,,0.00,meteohub,2013-07-14 04:10:00,
2013-07-13 23:15:00,70.3,62.1,30.02,NNE,15,0.0,0.0,75,0.00,,,0.00,meteohub,2013-07-14 04:15:00,
2013-07-13 23:20:00,70.3,62.1,30.02,NNE,15,0.0,0.0,75,0.00,,,0.00,meteohub,2013-07-14 04:20:00,
2013-07-13 23:26:00,70.3,62.1,30.02,NNE,30,0.0,0.0,75,0.00,,,0.00,meteohub,2013-07-14 04:26:00,
2013-07-13 23:31:00,70.2,61.9,30.03,NNE,30,0.0,1.0,75,0.00,,,0.00,meteohub,2013-07-14 04:31:00,
2013-07-13 23:36:00,70.2,61.9,30.03,NNE,26,0.0,1.0,75,0.00,,,0.00,meteohub,2013-07-14 04:36:00,
2013-07-13 23:41:00,70.2,61.9,30.03,NE,39,0.0,2.0,75,0.00,,,0.00,meteohub,2013-07-14 04:41:00,
2013-07-13 23:46:00,70.3,62.1,30.03,NE,39,0.0,2.0,75,0.00,,,0.00,meteohub,2013-07-14 04:46:00,
2013-07-13 23:51:00,70.3,62.1,30.04,NE,38,0.0,1.0,75,0.00,,,0.00,meteohub,2013-07-14 04:51:00,
2013-07-13 23:56:00,70.3,62.1,30.04,NE,39,0.0,0.0,75,0.00,,,0.00,meteohub,2013-07-14 04:56:00,